GW2918 Weather Reports


time (UTC)temp
F
wind
direction
speed
knots
gust
knots
rain 1hr
in
rain 24hr
in
rain mn
in
humidity
%
barometer
mb
20260906104742 58 72 1.7 2.6 0.00 0.00 0.00 99 1017.5
20260906103739 58 339 1.7 4.3 0.00 0.00 0.00 99 1017.5
20260906102735 58 324 1.7 7.8 0.00 0.00 0.00 99 1017.3
20260906101735 58 19 1.7 4.3 0.00 0.00 0.00 99 1017.1
20260906100731 57 135 0.0 1.7 0.00 0.00 0.00 99 1017.1
20260906095726 57 230 0.0 2.6 0.00 0.00 0.00 99 1017.2
20260906094726 58 10 1.7 2.6 0.00 0.00 0.00 99 1017.0
20260906093724 58 53 0.9 5.2 0.00 0.00 0.00 99 1016.9
20260906092721 58 3 2.6 4.3 0.00 0.00 0.00 99 1016.8
20260906091716 58 71 0.9 1.7 0.00 0.00 0.00 99 1016.5
20260906090714 57 249 1.7 1.7 0.00 0.00 0.00 99 1016.4
20260906085712 58 280 0.9 1.7 0.00 0.00 0.00 99 1016.5
20260906084712 57 325 0.9 2.6 0.00 0.00 0.00 99 1016.7
20260906083707 57 283 0.0 1.7 0.00 0.00 0.00 99 1016.6
20260906082703 58 9 1.7 3.5 0.00 0.00 0.00 99 1016.3
20260906081701 58 329 0.0 2.6 0.00 0.00 0.00 99 1016.4
20260906080658 58 52 0.0 2.6 0.00 0.00 0.00 99 1016.3
20260906075653 58 32 1.7 5.2 0.00 0.00 0.00 99 1016.5
20260906074649 59 46 1.7 4.3 0.00 0.00 0.00 99 1016.3
20260906073649 59 26 1.7 3.5 0.00 0.00 0.00 99 1016.5
20260906072646 59 25 1.7 3.5 0.00 0.00 0.00 99 1016.4
20260906071643 59 39 0.9 3.5 0.00 0.00 0.00 99 1016.4
20260906070640 59 347 2.6 3.5 0.00 0.00 0.00 99 1016.0
20260906065635 59 357 2.6 2.6 0.00 0.00 0.00 99 1016.4
20260906064631 59 250 0.0 2.6 0.00 0.00 0.00 99 1016.3
20260906063627 59 1 1.7 1.7 0.00 0.00 0.00 99 1016.3
20260906062625 59 345 1.7 2.6 0.00 0.00 0.00 99 1016.3
20260906061625 59 22 1.7 3.5 0.00 0.00 0.00 99 1016.5
20260906060621 59 312 1.7 3.5 0.00 0.00 0.00 99 1016.5
20260906055620 59 359 2.6 3.5 0.00 0.00 0.00 99 1016.4
20260906054616 59 8 2.6 3.5 0.00 0.00 0.00 99 1016.7
20260906053613 59 306 1.7 2.6 0.00 0.00 0.00 99 1016.5
20260906052609 59 359 3.5 4.3 0.00 0.00 0.00 99 1016.3
20260906051607 59 7 1.7 3.5 0.00 0.00 0.00 99 1016.6
20260906050604 59 35 1.7 2.6 0.00 0.00 0.00 99 1016.7
20260906045603 59 22 1.7 3.5 0.00 0.00 0.00 99 1016.6
20260906044600 59 2 1.7 2.6 0.00 0.00 0.00 99 1016.5
20260906043556 59 63 0.0 1.7 0.00 0.00 0.00 99 1016.6
20260906042556 59 30 1.7 3.5 0.00 0.00 0.00 99 1016.6
20260906041554 59 18 3.5 4.3 0.00 0.00 0.00 99 1016.8
20260906040549 59 33 1.7 2.6 0.00 0.00 0.00 99 1016.4
20260906035546 59 11 1.7 2.6 0.00 0.00 0.00 99 1016.6
20260906034541 59 63 0.0 1.7 0.00 0.00 0.00 98 1016.6
20260906033538 59 78 1.7 3.5 0.00 0.00 0.00 97 1016.8
20260906032535 60 18 3.5 5.2 0.00 0.00 0.00 96 1016.3
20260906031531 61 349 2.6 4.3 0.00 0.00 0.00 95 1016.3
20260906030526 60 28 1.7 2.6 0.00 0.00 0.00 96 1016.4
20260906025525 60 4 1.7 1.7 0.00 0.00 0.00 96 1016.5
20260906024525 60 277 0.0 1.7 0.00 0.00 0.00 96 1016.4
20260906023521 60 50 1.7 2.6 0.00 0.00 0.00 94 1016.1
20260906022517 60 68 0.9 1.7 0.00 0.00 0.00 95 1016.5
20260906021514 59 157 0.0 1.7 0.00 0.00 0.00 96 1016.3
20260906020513 59 123 0.0 0.9 0.00 0.00 0.00 97 1016.1
20260906015512 60 136 1.7 1.7 0.00 0.00 0.00 94 1016.0
20260906014507 60 188 0.0 1.7 0.00 0.00 0.00 94 1016.1
20260906013503 61 269 1.7 1.7 0.00 0.00 0.00 92 1016.0
20260906012500 62 326 0.0 2.6 0.00 0.00 0.00 91 1015.9
20260906011455 62 14 1.7 2.6 0.00 0.00 0.00 90 1016.3
20260906010451 63 335 3.5 4.3 0.00 0.00 0.00 90 1015.9
20260906005447 63 10 2.6 7.0 0.00 0.00 0.00 89 1015.8
20260906004445 63 9 2.6 4.3 0.00 0.00 0.00 89 1015.8
20260906003441 62 339 1.7 3.5 0.00 0.00 0.00 90 1015.6
20260906002436 63 244 0.9 3.5 0.00 0.00 0.00 89 1015.3
20260906001433 63 349 2.6 5.2 0.00 0.00 0.00 88 1015.5
20260906000429 64 341 3.5 4.3 0.00 0.00 0.00 88 1015.5
20260905235424 64 347 0.0 4.3 0.00 0.00 0.00 87 1015.2
20260905234420 64 351 1.7 2.6 0.00 0.00 0.00 86 1015.2
20260905233416 65 356 2.6 3.5 0.00 0.00 0.00 85 1015.2
20260905232411 66 359 0.0 3.5 0.00 0.00 0.00 83 1015.3
20260905231408 66 358 0.0 4.3 0.00 0.00 0.00 82 1015.1
20260905230408 66 31 1.7 2.6 0.00 0.00 0.00 82 1015.3
20260905225408 67 34 2.6 2.6 0.00 0.00 0.00 81 1015.2
20260905224405 68 356 1.7 5.2 0.00 0.00 0.00 79 1015.2
20260905223403 68 8 1.7 3.5 0.00 0.00 0.00 78 1015.0
20260905222402 68 359 5.2 5.2 0.00 0.00 0.00 78 1014.9
20260905221400 68 67 0.9 5.2 0.00 0.00 0.00 78 1014.9
20260905220358 67 329 0.9 5.2 0.00 0.00 0.00 79 1014.9
20260905215353 68 52 1.7 3.5 0.00 0.00 0.00 77 1014.9
20260905214350 68 9 1.7 4.3 0.00 0.00 0.00 77 1014.9
20260905213347 69 18 3.5 5.2 0.00 0.00 0.00 76 1014.7
20260905212347 69 337 3.5 6.1 0.00 0.00 0.00 75 1014.7
20260905211343 71 339 7.0 7.8 0.00 0.00 0.00 72 1014.6
20260905210339 69 49 1.7 3.5 0.00 0.00 0.00 75 1014.5
20260905205338 71 352 5.2 5.2 0.00 0.00 0.00 71 1014.7
20260905204334 69 12 2.6 7.0 0.00 0.00 0.00 75 1014.6
20260905203329 70 7 2.6 6.1 0.00 0.00 0.00 75 1014.6
20260905202325 70 331 4.3 8.7 0.00 0.00 0.00 70 1014.3
20260905201322 70 326 7.8 7.8 0.00 0.00 0.00 72 1014.4
20260905200318 69 291 1.7 4.3 0.00 0.00 0.00 74 1014.3
20260905195317 73 341 7.0 7.8 0.00 0.00 0.00 70 1014.4
20260905194312 71 9 1.7 7.0 0.00 0.00 0.00 75 1014.6
20260905193313 70 312 1.7 7.0 0.00 0.00 0.00 74 1014.7
20260905192310 70 54 3.5 4.3 0.00 0.00 0.00 73 1014.5
20260905191308 72 313 1.7 4.3 0.00 0.00 0.00 68 1014.6
20260905190306 71 22 1.7 6.1 0.00 0.00 0.00 73 1014.7
20260905185306 72 295 3.5 5.2 0.00 0.00 0.00 69 1014.7
20260905184305 71 70 1.7 3.5 0.00 0.00 0.00 72 1014.8
20260905183300 70 3 5.2 6.1 0.00 0.00 0.00 70 1014.6
20260905182259 70 345 7.0 9.6 0.00 0.00 0.00 67 1014.9
20260905181254 71 64 0.0 5.2 0.00 0.00 0.00 78 1014.7
20260905180249 71 349 1.7 7.0 0.00 0.00 0.00 70 1014.6
20260905175244 71 66 1.7 7.8 0.00 0.00 0.00 72 1014.8
20260905174241 70 344 1.7 7.8 0.00 0.00 0.00 74 1014.8
20260905173238 69 18 1.7 7.8 0.00 0.00 0.00 74 1015.0
20260905172237 69 157 0.0 6.1 0.00 0.00 0.00 79 1014.9
20260905171235 68 352 0.9 7.0 0.00 0.00 0.00 80 1015.1
20260905170233 68 302 2.6 7.8 0.00 0.00 0.00 79 1015.4
20260905165233 68 73 7.8 10.4 0.00 0.00 0.00 78 1015.4
20260905164234 69 0 5.2 8.7 0.00 0.00 0.00 78 1015.2
20260905163232 69 312 1.7 6.1 0.00 0.00 0.00 76 1015.3
20260905162227 70 349 1.7 2.6 0.00 0.00 0.00 76 1015.3
20260905161226 69 10 0.9 7.0 0.00 0.00 0.00 79 1015.5
20260905160225 68 356 7.0 7.8 0.00 0.00 0.00 77 1015.3
20260905155225 68 314 2.6 7.8 0.00 0.00 0.00 80 1015.4
20260905154221 68 328 6.1 7.8 0.00 0.00 0.00 78 1015.5
20260905153218 67 345 2.6 7.0 0.00 0.00 0.00 81 1015.4
20260905152213 67 30 1.7 4.3 0.00 0.00 0.00 82 1015.5
20260905151209 67 353 5.2 7.0 0.00 0.00 0.00 82 1015.5
20260905150208 67 0 4.3 11.3 0.00 0.00 0.00 82 1015.4
20260905145207 67 44 1.7 7.8 0.00 0.00 0.00 82 1015.6
20260905144206 67 104 7.0 7.8 0.00 0.00 0.00 84 1015.3
20260905143205 66 41 2.6 8.7 0.00 0.00 0.00 85 1015.4
20260905142204 65 96 5.2 6.1 0.00 0.00 0.00 87 1015.5
20260905141201 65 87 7.0 9.6 0.00 0.00 0.00 87 1015.3
20260905140156 66 43 6.1 12.2 0.00 0.00 0.00 86 1015.5
20260905135153 64 348 9.6 10.4 0.00 0.00 0.00 90 1015.4
20260905134151 62 74 6.1 7.0 0.00 0.00 0.00 92 1015.4
20260905133147 64 355 2.6 4.3 0.00 0.00 0.00 92 1015.4
20260905132148 64 16 1.7 5.2 0.00 0.00 0.00 93 1015.5
20260905131143 63 26 2.6 12.2 0.00 0.00 0.00 94 1015.4
20260905130143 65 313 3.5 6.1 0.00 0.00 0.00 91 1015.4
20260905125140 65 302 4.3 5.2 0.00 0.00 0.00 91 1015.3
20260905124137 63 343 2.6 7.8 0.00 0.00 0.00 94 1015.1
20260905123136 64 20 1.7 6.1 0.00 0.00 0.00 93 1015.2
20260905122130 64 40 2.6 3.5 0.00 0.00 0.00 92 1015.4
20260905121126 64 43 0.9 2.6 0.00 0.00 0.00 93 1015.1
20260905120120 62 335 1.7 4.3 0.00 0.00 0.00 95 1015.4
20260905115120 62 345 2.6 2.6 0.00 0.00 0.00 95 1015.3
20260905114118 62 2 2.6 3.5 0.00 0.00 0.00 97 1015.3
20260905113115 60 15 1.7 4.3 0.00 0.00 0.00 99 1015.1
20260905112111 60 257 0.0 1.7 0.00 0.00 0.00 99 1015.0
20260905111110 59 53 0.0 1.7 0.00 0.00 0.00 99 1014.9
20260905110105 58 109 0.9 1.7 0.00 0.00 0.00 99 1014.6